(206702) = 2004 BR11 = 2005 JU104 = 2007 TQ34

Discovered at Palomar on 2004-01-16 by NEAT.

Orbit

Orbit type: Main Belt

Note: WebGL enabled browser required.

epoch2023-02-25.0
epoch JD2460000.5
perihelion date2022-10-23.18710
perihelion JD2459875.68710
argument of perihelion (°)24.10132
ascending node (°)85.55151
inclination (°)0.57600
eccentricity0.0862112
perihelion distance (AU)2.5729870
Tisserand w.r.t. Jupiter3.3
ΔV w.r.t. Earth (km/sec)10.0
semimajor axis (AU)2.8157350
mean anomaly (°)26.03608
mean daily motion (°/day)0.20860090
aphelion distance (AU)3.058
period (years)4.72
P-vector [x]-0.33629940
P-vector [y]0.86240230
P-vector [z]0.37837149
Q-vector [x]-0.94170179
Q-vector [y]-0.31222104
Q-vector [z]-0.12536251
absolute magnitude16.95
phase slope0.15
uncertainty0
referenceMPEC 2023-D73
observations used270
oppositions13
arc length (days)9288
first opposition used1997
last opposition used2023
residual rms (arc-secs)0.71
perturbers coarse indicatorM-v
perturbers precise indicator003Ek
first observation date used1997-09-23.0
last observation date used2023-02-27.0
computer nameMPCLINUX
JD of orbit computation2456789.267578
perihelion JD uncertainty (days)2.1557E-04
argument of perihelion uncertainty (°)5.9953E-04
ascending node uncertainty (°)5.9761E-04
inclination uncertainty (°)4.1802E-06
eccentricity uncertainty 4.2487E-08
perihelion distance uncertainty (AU)1.1549E-07
Minimum Orbit Intersection Distances (in AU)
for orbit epoch: 2460000.5, reference: E2023-D73
Mercury2.25425
Venus1.85457
Earth1.58919
Mars0.93801
Jupiter2.02246
Saturn6.46379
Uranus15.7395
Neptune27.0027

Observations

268 total observations over interval: 1997 09 23.18732 – 2023 02 27.620714
These data are available for download (format description).

Date (UT) J2000 RA J2000 Dec Magn Location Ref
1997 09 23.18732 23 08 27.21 -06 28 06.3 21.2 V 691 – Steward Observatory, Kitt Peak-Spacewatch MPS 223428
1997 09 23.20850 23 08 26.13 -06 28 10.9 21.1 V 691 – Steward Observatory, Kitt Peak-Spacewatch MPS 223428
1997 09 23.22983 23 08 25.22 -06 28 17.3 21.2 V 691 – Steward Observatory, Kitt Peak-Spacewatch MPS 223428
2000 05 02.22199 13 16 06.07 -07 15 02.3 21.8 V 691 – Steward Observatory, Kitt Peak-Spacewatch MPS 223428
2000 05 02.24367 13 16 05.18 -07 14 57.2 21.7 V 691 – Steward Observatory, Kitt Peak-Spacewatch MPS 223428
2000 05 02.26569 13 16 04.25 -07 14 52.4 21.5 V 691 – Steward Observatory, Kitt Peak-Spacewatch MPS 223428
2004 01 16.30557 08 37 46.91 +19 05 35.5 20.1   644 – Palomar Mountain/NEAT MPS 97102
2004 01 16.32698 08 37 45.73 +19 05 40.2 20.2   644 – Palomar Mountain/NEAT MPS 97102
2004 01 16.35469 08 37 44.23 +19 05 45.3 20.0   644 – Palomar Mountain/NEAT MPS 97102
2004 01 19.25582 08 35 09.30 +19 15 57.4 20.7 V 691 – Steward Observatory, Kitt Peak-Spacewatch MPS 97102
2004 01 19.28457 08 35 07.69 +19 16 03.5 20.7 V 691 – Steward Observatory, Kitt Peak-Spacewatch MPS 97102
2004 01 19.31410 08 35 06.03 +19 16 09.7 20.7 V 691 – Steward Observatory, Kitt Peak-Spacewatch MPS 97102
2004 02 17.281670 08 10 19.972 +20 43 09.32 20.92 V 645 – Apache Point-Sloan Digital Sky Survey MPS 223428
2004 02 17.285142 08 10 19.833 +20 43 09.70 21.81   645 – Apache Point-Sloan Digital Sky Survey MPS 223428
2005 05 11.23190 15 06 52.19 -16 58 52.5 21.1 V 691 – Steward Observatory, Kitt Peak-Spacewatch MPS 134972
2005 05 11.24991 15 06 51.24 -16 58 48.6 21.0 V 691 – Steward Observatory, Kitt Peak-Spacewatch MPS 134972
2005 05 11.26782 15 06 50.26 -16 58 44.7 21.2 V 691 – Steward Observatory, Kitt Peak-Spacewatch MPS 134972
2005 05 13.29679 15 05 04.78 -16 51 54.1 19.2 R G96 – Mt. Lemmon Survey MPS 134972
2005 05 13.30418 15 05 04.30 -16 51 52.7 20.8 R G96 – Mt. Lemmon Survey MPS 134972
2005 05 13.31160 15 05 03.88 -16 51 51.1 20.8 R G96 – Mt. Lemmon Survey MPS 134972
2005 05 13.31897 15 05 03.54 -16 51 50.1 20.3 R G96 – Mt. Lemmon Survey MPS 134972
2007 10 06.37599 02 54 45.77 +15 58 32.7   691 – Steward Observatory, Kitt Peak-Spacewatch MPS 220735
2007 10 06.39363 02 54 45.22 +15 58 30.1   691 – Steward Observatory, Kitt Peak-Spacewatch MPS 220735
2007 10 06.41123 02 54 44.65 +15 58 27.8   691 – Steward Observatory, Kitt Peak-Spacewatch MPS 220735
2007 10 07.39771 02 54 14.36 +15 56 13.5 20.9 V G96 – Mt. Lemmon Survey MPS 220735
2007 10 07.40321 02 54 14.14 +15 56 13.3 20.8 V G96 – Mt. Lemmon Survey MPS 220735
2007 10 07.40891 02 54 13.96 +15 56 12.0 21.3 V G96 – Mt. Lemmon Survey MPS 220735
2007 10 07.41446 02 54 13.78 +15 56 11.3 20.9 V G96 – Mt. Lemmon Survey MPS 220735
2007 10 30.18618 02 37 32.06 +14 41 46.5 20.5 V 691 – Steward Observatory, Kitt Peak-Spacewatch MPS 223428
2007 10 30.20380 02 37 31.11 +14 41 41.6 20.5 V 691 – Steward Observatory, Kitt Peak-Spacewatch MPS 223428
2007 10 30.22143 02 37 30.19 +14 41 37.7 20.6 V 691 – Steward Observatory, Kitt Peak-Spacewatch MPS 223428
2007 10 30.35639 02 37 22.87 +14 41 05.3 20.2 V G96 – Mt. Lemmon Survey MPS 223428
2007 10 30.37035 02 37 22.11 +14 41 01.7 20.1 V G96 – Mt. Lemmon Survey MPS 223428
2007 10 30.38420 02 37 21.36 +14 40 58.6 20.3 V G96 – Mt. Lemmon Survey MPS 223428
2007 10 30.39809 02 37 20.64 +14 40 55.2 20.1 V G96 – Mt. Lemmon Survey MPS 223428
2007 11 09.35462 02 28 35.32 +14 00 42.7 19.9 V G96 – Mt. Lemmon Survey MPS 224833
2007 11 09.35785 02 28 35.14 +14 00 41.7 19.8 V G96 – Mt. Lemmon Survey MPS 224833
2007 11 09.36100 02 28 35.00 +14 00 41.2 20.2 V G96 – Mt. Lemmon Survey MPS 224833
2007 11 09.36417 02 28 34.78 +14 00 40.3 19.9 V G96 – Mt. Lemmon Survey MPS 224833
2007 11 18.17432 02 21 18.00 +13 26 45.8   291 – LPL/Spacewatch II MPS 228266
2007 11 18.18052 02 21 17.72 +13 26 44.5   291 – LPL/Spacewatch II MPS 228266
2007 11 18.18435 02 21 17.53 +13 26 43.8   291 – LPL/Spacewatch II MPS 228266
2007 12 06.22852 02 10 27.26 +12 36 41.4 21.7 V G96 – Mt. Lemmon Survey MPS 229793
2007 12 06.23521 02 10 27.12 +12 36 40.6 21.1 V G96 – Mt. Lemmon Survey MPS 229793
2007 12 06.24191 02 10 26.94 +12 36 40.2 20.9 V G96 – Mt. Lemmon Survey MPS 229793
2007 12 06.24863 02 10 26.76 +12 36 39.6 21.7 V G96 – Mt. Lemmon Survey MPS 229793
2008 12 31.41701 10 59 38.22 +07 07 47.7 20.8 V G96 – Mt. Lemmon Survey MPS 270102
2008 12 31.42546 10 59 38.32 +07 07 46.7 21.5 V G96 – Mt. Lemmon Survey MPS 270102
2008 12 31.43387 10 59 38.43 +07 07 45.9 21.5 V G96 – Mt. Lemmon Survey MPS 270102
2008 12 31.44222 10 59 38.50 +07 07 45.5 21.1 V G96 – Mt. Lemmon Survey MPS 270102
2009 01 16.49191 11 00 29.29 +07 08 11.1 20.9 V 691 – Steward Observatory, Kitt Peak-Spacewatch MPS 272446
2009 01 16.50999 11 00 29.09 +07 08 12.4 20.9 V 691 – Steward Observatory, Kitt Peak-Spacewatch MPS 272446
2009 01 16.52832 11 00 28.91 +07 08 13.7 20.9 V 691 – Steward Observatory, Kitt Peak-Spacewatch MPS 272446
2009 02 04.32147 10 53 05.46 +07 59 50.1 20.6 V G96 – Mt. Lemmon Survey MPS 272446
2009 02 04.32655 10 53 05.24 +07 59 50.9 20.9 V G96 – Mt. Lemmon Survey MPS 272446
2009 02 04.33168 10 53 05.06 +07 59 52.3 21.3 V G96 – Mt. Lemmon Survey MPS 272446
2009 02 04.33682 10 53 04.88 +07 59 53.4 21.1 V G96 – Mt. Lemmon Survey MPS 272446
2009 02 17.02767 10 43 58.28 +08 57 59.4 20.1 V J75 – OAM Observatory, La Sagra MPS 279981
2009 02 17.04100 10 43 57.59 +08 58 03.0 20.4 V J75 – OAM Observatory, La Sagra MPS 279981
2009 02 17.05448 10 43 56.98 +08 58 07.3 20.0 V J75 – OAM Observatory, La Sagra MPS 279981
2009 02 22.29188 10 39 38.08 +09 24 42.6 20.0 V G96 – Mt. Lemmon Survey MPS 278514
2009 02 22.29598 10 39 37.90 +09 24 43.5 20.0 V G96 – Mt. Lemmon Survey MPS 278514
2009 02 22.30015 10 39 37.72 +09 24 44.6 19.8 V G96 – Mt. Lemmon Survey MPS 278514
2009 02 22.30429 10 39 37.47 +09 24 46.3 20.1 V G96 – Mt. Lemmon Survey MPS 278514
2009 02 26.28620 10 36 15.58 +09 45 06.6 19.7 V 703 – Catalina Sky Survey MPS 279551
2009 02 26.29669 10 36 15.19 +09 45 10.9 20.1 V 703 – Catalina Sky Survey MPS 279551
2009 02 26.30706 10 36 14.58 +09 45 12.2 19.8 V 703 – Catalina Sky Survey MPS 279551
2009 02 26.31753 10 36 14.07 +09 45 16.2 20.2 V 703 – Catalina Sky Survey MPS 279551
2009 02 27.25483 10 35 26.53 +09 50 01.5   291 – LPL/Spacewatch II MPS 278514
2009 02 27.25876 10 35 26.33 +09 50 02.8   291 – LPL/Spacewatch II MPS 278514
2009 02 27.26252 10 35 26.12 +09 50 04.0   291 – LPL/Spacewatch II MPS 278514
2009 03 03.15846 10 32 09.89 +10 09 28.2 20.4 V 691 – Steward Observatory, Kitt Peak-Spacewatch MPS 279551
2009 03 03.17609 10 32 08.98 +10 09 33.2 20.5 V 691 – Steward Observatory, Kitt Peak-Spacewatch MPS 279551
2009 03 03.19373 10 32 08.13 +10 09 38.3 20.5 V 691 – Steward Observatory, Kitt Peak-Spacewatch MPS 279551
2009 03 19.24899 10 20 12.22 +11 17 31.6 20.7 V G96 – Mt. Lemmon Survey MPS 281156
2009 03 19.25657 10 20 11.94 +11 17 33.1 20.2 V G96 – Mt. Lemmon Survey MPS 281156
2009 03 19.26409 10 20 11.65 +11 17 34.4 20.8 V G96 – Mt. Lemmon Survey MPS 281156
2009 03 19.27162 10 20 11.36 +11 17 36.0 20.3 V G96 – Mt. Lemmon Survey MPS 281156
2012 11 24.27705 04 49 09.40 +22 11 03.8 20.5 V 691 – Steward Observatory, Kitt Peak-Spacewatch MPS 444657
2012 11 24.29476 04 49 08.37 +22 11 02.3 20.8 V 691 – Steward Observatory, Kitt Peak-Spacewatch MPS 444657
2012 11 24.31245 04 49 07.36 +22 11 01.0 20.3 V 691 – Steward Observatory, Kitt Peak-Spacewatch MPS 444657
2014 02 26.51727 12 45 59.230 -04 01 15.06 21.1 w F51 – Pan-STARRS 1, Haleakala MPS 503583
2014 02 26.52964 12 45 58.865 -04 01 12.76 21.0 w F51 – Pan-STARRS 1, Haleakala MPS 503583
2014 02 26.54201 12 45 58.509 -04 01 10.44 21.0 w F51 – Pan-STARRS 1, Haleakala MPS 503583
2014 02 26.55439 12 45 58.148 -04 01 08.05 21.1 w F51 – Pan-STARRS 1, Haleakala MPS 503583
2014 03 06.45798 12 41 41.915 -03 32 34.53 20.9 w F51 – Pan-STARRS 1, Haleakala MPS 505071
2014 03 06.46989 12 41 41.453 -03 32 31.72 20.9 w F51 – Pan-STARRS 1, Haleakala MPS 505071
2014 04 04.39981 12 19 34.502 -01 09 49.53 20.5 w F51 – Pan-STARRS 1, Haleakala MPS 510806
2014 04 04.41117 12 19 33.940 -01 09 46.16 20.5 w F51 – Pan-STARRS 1, Haleakala MPS 510806
